User: anonymous   Login
Location: Unspecified
(0.0000°N, 0.0000°E)
Time: 18:27:20
(UTC+00:00)
Language:

YUBILEINY - Orbit

View from above orbital plane
View from above orbital plane
View from above satellite
View from above satellite

Ground track
Ground track

The orbit data is extracted from the following two-line orbital elements,

1 32953U 08025A   17080.87683938 +.00000016 +00000-0 +44612-4 0  9993
2 32953 082.5000 293.9580 0019575 114.9187 245.3930 12.43075277400573
Epoch (UTC): 21 March 2017 21:02:38
Eccentricity: 0.0019575
inclination: 82.5000°
perigee height: 1478 km
apogee height: 1509 km
right ascension of ascending node: 293.9580°
argument of perigee: 114.9187°
revolutions per day: 12.43075277
mean anomaly at epoch: 245.3930°
orbit number at epoch: 40057

The dashed part of the orbit path shows where the satellite is in the earth's shadow,  

DLR